Regional Weather Roundup
Issued by NWS Wilmington, NC

Home | Current Version | Previous Version | Text Only | Print | Product List | Glossary On
Versions: 1 2 3 4 5 6 7 8 9 10 11 12 13 14 15 16 17 18 19 20 21 22 23 24 25 26 27 28 29 30 31 32 33 34 35 36 37 38 39 40 41 42 43 44 45 46 47 48 49 50
000
ASUS42 KILM 270413
RWRILM
RWRILM
REGIONAL HOURLY WEATHER ROUNDUP
NATIONAL WEATHER SERVICE WILMINGTON NC
1200 AM EDT WED JUL 27 2016

NOTE: "FAIR" INDICATES FEW OR NO CLOUDS BELOW 12,000 FEET WITH NO
SIGNIFICANT WEATHER AND/OR OBSTRUCTIONS TO VISIBILITY.

...............WFO WILMINGTON COUNTY WARNING AREA...............

......COASTAL NC AND SC COUNTIES......

CITY           SKY/WX    TMP DP  RH WIND       PRES   REMARKS
WILMINGTON     CLEAR     81  76  84 SW7       30.01R
N MYRTLE BEACH CLEAR     83  76  79 SW10      30.01R HX  91
MYRTLE BEACH   CLEAR     82  70  65 SW6       30.03S

......INLAND NC AND SC COUNTIES.......

CITY           SKY/WX    TMP DP  RH WIND       PRES   REMARKS
LUMBERTON      CLEAR     82  76  81 S5        29.99R
ELIZABETHTOWN  CLEAR     81  75  81 S6        29.99S
WHITEVILLE     CLEAR     80  75  85 SW3       30.00R
FLORENCE       CLEAR     83  75  77 SW8       30.01R HX  90
DARLINGTON     CLEAR     83  74  74 SW9       30.00S
KINGSTREE      FAIR      81  72  74 S5        30.02S
HARTSVILLE     FAIR      81  72  74 SW6       30.00S
BENNETTSVILLE  FAIR      84  77  79 S3        29.98S HX  94
CONWAY         FAIR      79  73  83 SW6       30.01S
GEORGETOWN     FAIR      79  73  83 SW7       30.03F
MARION           N/A     81  73  78 SW6       30.01R

....................REST OF NORTH CAROLINA......................

.........EASTERN NC.........

CITY           SKY/WX    TMP DP  RH WIND       PRES   REMARKS
CAPE HATTERAS  CLOUDY    83  77  82 W12       29.98R HX  92
JACKSONVILLE   CLEAR     79  75  87 S8        30.00R
MOREHEAD CITY  CLOUDY    83  78  85 SW12      30.00R HX  93
KENANSVILLE    NOT AVBL
NEW BERN       CLEAR     79  74  84 SW6       30.00R
ELIZABETH CITY CLOUDY    77  75  93 S3        29.96S

.........CENTRAL NC.........

CITY           SKY/WX    TMP DP  RH WIND       PRES   REMARKS
RALEIGH DURHAM CLOUDY    77  75  93 CALM      29.98F
ROCKY MOUNT    CLOUDY    81  78  91 CALM      29.98R
ROANOKE RAPIDS NOT AVBL
FAYETTEVILLE   CLOUDY    84  76  76 S6        29.98S HX  93
HOFFMAN        PTCLDY    84  73  69 SW6       29.98F HX  90

.........WESTERN NC.........

CITY           SKY/WX    TMP DP  RH WIND       PRES   REMARKS
CHARLOTTE      MOCLDY    82  72  71 SW3       30.01S
GREENSBORO     MOCLDY    82  75  79 SW3       30.01R
HICKORY        NOT AVBL
BOONE          NOT AVBL
ASHEVILLE      NOT AVBL

.....................REST OF SOUTH CAROLINA.....................

.........EASTERN SC.........

CITY           SKY/WX    TMP DP  RH WIND       PRES   REMARKS
CHARLESTON     PTCLDY    82  75  79 SW8       30.03S
BEAUFORT MCAS  CLEAR     84  76  76 S7        30.04R HX  93
HILTON HEAD    CLEAR     86  79  79 SW12      30.05S HX  99

.........CENTRAL SC.........

CITY           SKY/WX    TMP DP  RH WIND       PRES   REMARKS
COLUMBIA       CLEAR     86  70  58 SW7       30.01S HX  90
ORANGEBURG     CLEAR     81  74  79 S5        30.04R
SUMTER SHAW    CLEAR     83  73  70 SW13      29.99S

.........WESTERN SC.........

CITY           SKY/WX    TMP DP  RH WIND       PRES   REMARKS
GREENVILLE     NOT AVBL
ROCK HILL      PTCLDY    80  74  81 SW5       30.02S
ANDERSON       CLEAR     80  67  64 CALM      30.03R
CLEMSON        NOT AVBL
GREENWOOD      CLEAR     82  64  54 SW8       30.05R


...................COASTAL AND OFFSHORE REPORTS..................

................LOCAL PIERS AND NC RESERVE................


STATION/POSITION TIME  SKY/WX   TEMP    WIND        PRES    VSBY
                                AIR SEA DIR/SP/G
                 (UTC)          (F)     (DEG/KT/KT) (MB)    (MI)
JOHNY MRCER PIER 0300               80  220/  9/ 11   N/A
NC RESRV MASNBRO NOT AVBL
OCEAN CREST PIER NOT AVBL
SPRINGMAID  PIER 0300               85                N/A


................COASTAL AND OFFSHORE BUOYS................


STATION/POSITION TIME  SKY/WX   TEMP    WIND        PRES    VSBY
                                AIR SEA DIR/SP/G
                 (UTC)          (F)     (DEG/KT/KT) (MB)    (MI)
DIMNDSHOAL 41025 0350            84 84  240/ 19/ 21 1015.0R
WVE H/P(F/S)=  5/ 5

CAPE LOOKOUT     0400            83     240/ 13/ 16 1015.4R
ONSLOW BAY 41036 NOT AVBL
ONSLOW BAY 41064 0308            84 85  230/ 17/ 21 1015.7R
ONSLOW BAY 41159 0325               85                N/A
WVE H/P(F/S)=  4/ 5

5SE WRITBC 41038 0308            81 80  230/  8/ 12 1016.5F
MASNBO INL 41110 0306               80                N/A
WVE H/P(F/S)=  2/ 4

WILM HARBR 41108 0326               85                N/A
WVE H/P(F/S)=  4/ 5

27SE WRITB 41037 0308            84 84  230/ 16/ 19 1016.1R
FRYING PAN 41013 0400            85 85  230/ 16/ 19 1016.0S
SUNST NRSH 41024 0308            84 84  230/ 17/ 23 1016.0R
CAPRS NRSH 41029 0308            84 84  230/ 14/ 17 1016.6R
EDISTO     41004 0350            85 86  220/ 16/ 19 1016.4F
WVE H/P(F/S)=  3/ 4 SWL H/P/D(F/S/D)=  2/130/ 8



..........OFFSHORE BUOYS BEYOND 100 NM OFFSHORE...........
.....IN A TRIANGLE---HAT TO BERMUDA TO BAHAMAS TO HAT.....


STATION/POSITION TIME  SKY/WX   TEMP    WIND        PRES    VSBY
                                AIR SEA DIR/SP/G
                 (UTC)          (F)     (DEG/KT/KT) (MB)    (MI)
150E HAT   41001 NOT AVBL
W BERMUDA  41048 0350            83 84  250/ 10/ 14 1017.3F
WVE H/P(F/S)=  3/ 8 SWL H/P/D(F/S/D)=  2/150/ 8

ATLANTIC S 41049 0350            82 85  310/  6/  8 1018.8F
WVE H/P(F/S)=  3/ 7 SWL H/P/D(F/S/D)=  3/120/ 7

E BAHAMAS  41046 0300            83 85   90/ 14/ 16 1018.5R
NE BAHAMAS 41047 0400            84 86  110/  4/  6 1019.4F
120E CANVRL41010 0320            85 86  160/  8/ 10 1019.3R

END



USA.gov is the U.S. government's official web portal to all federal, state and local government web resources and services.